Williams Field, Antarctic, New Zealand
  Lat: 77.88S, Lon: 166.65E
ICAO Used: NZWD
Past Weather Observations for Wednesday, November 26, 2014

NOTE: This archive is for the closest National Weather Service station to Williams Field, Antarctic. Information may differ from the station used for current weather conditions.

Click here for Long-term Archive

Time Weather Temperature Dewpoint Humidity Pressure Winds Precip Visibility
23:55
Mostly Cloudy
Snow
23°F / -5°C 14°F / -10°C 68% 29.18 in
(988 mb)
SSE 6.9 mph
(SSE 11 kph)
- 10km
22:55
Mostly Cloudy
Light Snow
21°F / -6°C 16°F / -9°C 80% 29.18 in
(988 mb)
SSE 5.8 mph
(SSE 9 kph)
- 10km
21:55
Mostly Cloudy
Light Snow
21°F / -6°C 14°F / -10°C 74% 29.18 in
(988 mb)
E 4.6 mph
(E 7 kph)
- 10km
20:55
Mostly Cloudy
Light Snow
19°F / -7°C 14°F / -10°C 79% 29.18 in
(988 mb)
NE 5.8 mph
(NE 9 kph)
- 10km
19:55
Mostly Cloudy
Light Snow
16°F / -9°C 12°F / -11°C 86% 29.15 in
(987 mb)
NE 5.8 mph
(NE 9 kph)
- 10km
18:55
Mostly Cloudy
Light Snow
16°F / -9°C 12°F / -11°C 86% 29.15 in
(987 mb)
ENE 5.8 mph
(ENE 9 kph)
- 10km
17:55
Overcast
Light Snow
18°F / -8°C 12°F / -11°C 79% 29.15 in
(987 mb)
E 6.9 mph
(E 11 kph)
- 10km
16:55
Overcast
Light Snow
19°F / -7°C 12°F / -11°C 73% 29.15 in
(987 mb)
SSE 10.4 mph
(SSE 17 kph)
- 10km
15:55
Mostly Cloudy
Light Snow
18°F / -8°C 14°F / -10°C 86% 29.15 in
(987 mb)
SSE 16.1 mph
(SSE 26 kph)
- 10km
14:55
Overcast
Light Snow
18°F / -8°C 12°F / -11°C 79% 29.15 in
(987 mb)
ESE 3.5 mph
(ESE 6 kph)
- 10km
13:55
Overcast
Light Snow
16°F / -9°C 12°F / -11°C 86% 29.15 in
(987 mb)
NE 4.6 mph
(NE 7 kph)
- 10km
12:55
Overcast
Light Snow
14°F / -10°C 12°F / -11°C 92% 29.15 in
(987 mb)
E 2.3 mph
(E 4 kph)
- 10km
11:55
Overcast
Light Snow
16°F / -9°C 12°F / -11°C 86% 29.15 in
(987 mb)
SE 3.5 mph
(SE 6 kph)
- 9000
10:55
Mostly Cloudy
Light Snow
18°F / -8°C 14°F / -10°C 86% 29.15 in
(987 mb)
Calm - 6000
10:05
Overcast
Light Snow
18°F / -8°C 14°F / -10°C 86% 29.15 in
(987 mb)
Calm - 4800
09:55
Overcast
Light Snow
19°F / -7°C 14°F / -10°C 79% 29.15 in
(987 mb)
S 3.5 mph
(S 6 kph)
- 1600
08:55
Overcast
Light Snow
19°F / -7°C 16°F / -9°C 86% 29.15 in
(987 mb)
ENE 5.8 mph
(ENE 9 kph)
- 1600
08:25
Overcast
Light Snow
19°F / -7°C 14°F / -10°C 79% 29.15 in
(987 mb)
ENE 4.6 mph
(ENE 7 kph)
- 3200
08:05
Mostly Cloudy
Light Snow
19°F / -7°C 16°F / -9°C 86% 29.15 in
(987 mb)
NE 8.1 mph
(NE 13 kph)
- 4800
07:55
Mostly Cloudy
Light Snow
19°F / -7°C 14°F / -10°C 79% 29.15 in
(987 mb)
ENE 6.9 mph
(ENE 11 kph)
- 10km
07:29
Mostly Cloudy
Light Snow
19°F / -7°C 14°F / -10°C 79% 29.15 in
(987 mb)
ENE 4.6 mph
(ENE 7 kph)
- 10km
06:55
Mostly Cloudy
Snow
19°F / -7°C 12°F / -11°C 73% 29.15 in
(987 mb)
E 8.1 mph
(E 13 kph)
- 10km
05:55
Mostly Cloudy
Blowing
19°F / -7°C 12°F / -11°C 73% 29.15 in
(987 mb)
E 10.4 mph
(E 17 kph)
- 10km
04:55
Mostly Cloudy
Blowing
19°F / -7°C 14°F / -10°C 79% 29.15 in
(987 mb)
ESE 12.7 mph
(ESE 20 kph)
- 10km
03:55
Mostly Cloudy
Blowing
19°F / -7°C 14°F / -10°C 79% 29.12 in
(986 mb)
SSE 19.6 mph
(SSE 32 kph)
- 10km
03:38
Mostly Cloudy
Blowing
19°F / -7°C 14°F / -10°C 79% 29.12 in
(986 mb)
SSE 21.9 mph
(SSE 35 kph)
- 10km
02:55
Mostly Cloudy
Blowing Snow
19°F / -7°C 14°F / -10°C 79% 29.12 in
(986 mb)
S 26.5 mph
(S 43 kph)
- 4000
01:55
Overcast
Blowing Snow
18°F / -8°C 14°F / -10°C 86% 29.15 in
(987 mb)
S 21.9 mph
(S 35 kph)
- 1200
00:55
Overcast
Blowing Snow
18°F / -8°C 14°F / -10°C 86% 29.15 in
(987 mb)
S 23 mph
(S 37 kph)
- 2400
Time Weather Temperature Dewpoint Humidity Pressure Winds Precip Visibility


Weather for websites

WeatherForYou.com, LLC is not responsible for any damages or problems caused by this service. Current weather conditions are obtained from the closest station including government and personal stations which may have varying degrees of accuracy. Weather forecasts are derived from the NOAA NDFD. Like all things, this site belongs to Jesus Christ... He just trusts me to maintain it. If you have any questions or comments email webmaster@weatherforyou.com

Copyright © 2014, WeatherForYou.com LLC. All rights reserved.